Tracking 25193 objects as of 19-Jan-2022
HD Live streaming from Space Station
objects crossing your sky now

DELTA 1 R/B

Track DELTA 1 R/B now!
10-day predictions
DELTA 1 R/B is classified as:


NORAD ID: 20323
Int'l Code: 1989-089B
Perigee: 687.3 km
Apogee: 788.4 km
Inclination: 97.1 °
Period: 99.4 minutes
Semi major axis: 7108 km
RCS: 8.9124 m2 (large)
Launch date: November 18, 1989
Source: United States (US)
Launch site: AIR FORCE WESTERN TEST RANGE (AFWTR)

Note: This is a ROCKET BODY
aabbcc
Your satellite tracking list
Your tracking list is empty




NASA's NSSDC Master Catalog

Two Line Element Set (TLE):
1 20323U 89089B   22018.59216184  .00000126  00000-0  41599-4 0  9994
2 20323  97.1049  84.1977 0071086 205.1136 154.6598 14.48449979676846
Source of the keplerian elements: AFSPC